Estación de San Fernando
Ultimos registro cada 15 minutos 61
| N° | Estación | Fecha / Hora | Temperatura | Humedad | Lluvia | Velocidad | Dirección | Radiación | Presion |
| 61 | San Fernando | 08-05-2026 15:15 | 13,5 | 78 | 0 | 1,3 | 250 | 345 | 1017,6 |
| 60 | San Fernando | 08-05-2026 15:00 | 13,2 | 77 | 0 | 0,4 | 204 | 378 | 1017,8 |
| 59 | San Fernando | 08-05-2026 14:45 | 13,2 | 74 | 0 | 0,4 | 221 | 404 | 1017,8 |
| 58 | San Fernando | 08-05-2026 14:30 | 13,8 | 74 | 0 | 0,4 | 286 | 427 | 1017,8 |
| 57 | San Fernando | 08-05-2026 14:15 | 13,9 | 77 | 0 | 0,4 | 294 | 448 | 1017,9 |
| 56 | San Fernando | 08-05-2026 14:00 | 13,8 | 79 | 0 | 0 | 262 | 468 | 1018,2 |
| 55 | San Fernando | 08-05-2026 13:45 | 13,2 | 79 | 0 | 0,4 | 249 | 482 | 1018,5 |
| 54 | San Fernando | 08-05-2026 13:30 | 13,1 | 79 | 0 | 1,3 | 262 | 494 | 1018,5 |
| 53 | San Fernando | 08-05-2026 13:15 | 12,9 | 78 | 0 | 0,9 | 239 | 504 | 1018,7 |
| 52 | San Fernando | 08-05-2026 13:00 | 13,2 | 78 | 0 | 0,4 | 255 | 510 | 1019,1 |
| 51 | San Fernando | 08-05-2026 12:45 | 13,1 | 77 | 0 | 0,9 | 223 | 512 | 1019,1 |
| 50 | San Fernando | 08-05-2026 12:30 | 13,4 | 72 | 0 | 1,3 | 185 | 512 | 1019,2 |
| 49 | San Fernando | 08-05-2026 12:15 | 13,5 | 70 | 0 | 0 | 239 | 506 | 1019,4 |
| 48 | San Fernando | 08-05-2026 12:00 | 14,4 | 67 | 0 | 0,4 | 199 | 499 | 1019,7 |
| 47 | San Fernando | 08-05-2026 11:45 | 14,4 | 59 | 0 | 0,4 | 234 | 489 | 1019,6 |
| 46 | San Fernando | 08-05-2026 11:30 | 14 | 71 | 0 | 0,9 | 348 | 475 | 1019,9 |
| 45 | San Fernando | 08-05-2026 11:15 | 13,3 | 68 | 0 | 0,4 | 258 | 455 | 1020,1 |
| 44 | San Fernando | 08-05-2026 11:00 | 12,4 | 72 | 0 | 0 | 209 | 441 | 1020,3 |
| 43 | San Fernando | 08-05-2026 10:45 | 11 | 78 | 0 | 1,3 | 104 | 410 | 1020,6 |
| 42 | San Fernando | 08-05-2026 10:15 | 10,6 | 75 | 0 | 0 | 84 | 380 | 1020,9 |
| 41 | San Fernando | 08-05-2026 10:00 | 10,4 | 78 | 0 | 0 | 82 | 350 | 1021 |
| 40 | San Fernando | 08-05-2026 09:45 | 9,8 | 80 | 0 | 0,4 | 204 | 320 | 1021,1 |
| 39 | San Fernando | 08-05-2026 09:30 | 9,2 | 80 | 0 | 0 | 241 | 283 | 1021,2 |
| 38 | San Fernando | 08-05-2026 09:15 | 8,7 | 83 | 0 | 0 | 204 | 248 | 1021,3 |
| 37 | San Fernando | 08-05-2026 09:00 | 7,8 | 86 | 0 | 0 | 72 | 204 | 1021,2 |
| 36 | San Fernando | 08-05-2026 08:45 | 6,7 | 91 | 0 | 0 | 191 | 171 | 1021,3 |
| 35 | San Fernando | 08-05-2026 08:30 | 5,6 | 93 | 0 | 0 | 191 | 130 | 1021,1 |
| 34 | San Fernando | 08-05-2026 08:15 | 4,6 | 94 | 0 | 0 | 114 | 25 | 1020,8 |
| 33 | San Fernando | 08-05-2026 08:00 | 3,9 | 92 | 0 | 0 | 114 | 30 | 1020,6 |
| 32 | San Fernando | 08-05-2026 07:45 | 3,8 | 92 | 0 | 0 | 114 | 12 | 1020,7 |
| 31 | San Fernando | 08-05-2026 07:30 | 4 | 91 | 0 | 0,4 | 114 | 5 | 1020,6 |
| 30 | San Fernando | 08-05-2026 07:15 | 4,3 | 91 | 0 | 0,4 | 161 | 0 | 1020,7 |
| 29 | San Fernando | 08-05-2026 07:00 | 4,4 | 91 | 0 | 0 | 161 | 0 | 1020,8 |
| 28 | San Fernando | 08-05-2026 06:45 | 4,7 | 90 | 0 | 0 | 239 | 0 | 1021 |
| 27 | San Fernando | 08-05-2026 06:30 | 4,8 | 90 | 0 | 0 | 239 | 0 | 1021,3 |
| 26 | San Fernando | 08-05-2026 06:15 | 4,9 | 90 | 0 | 0 | 219 | 0 | 1021,6 |
| 25 | San Fernando | 08-05-2026 06:00 | 4,9 | 90 | 0 | 0,4 | 209 | 0 | 1021,7 |
| 24 | San Fernando | 08-05-2026 05:45 | 5,1 | 89 | 0 | 1,3 | 227 | 0 | 1021,6 |
| 23 | San Fernando | 08-05-2026 05:30 | 5,2 | 89 | 0 | 0,4 | 214 | 0 | 1021,5 |
| 22 | San Fernando | 08-05-2026 05:15 | 5,3 | 89 | 0 | 1,8 | 214 | 0 | 1021,5 |
| 21 | San Fernando | 08-05-2026 05:00 | 5,3 | 89 | 0 | 1,3 | 228 | 0 | 1021,3 |
| 20 | San Fernando | 08-05-2026 04:45 | 5,4 | 88 | 0 | 0 | 178 | 0 | 1021,1 |
| 19 | San Fernando | 08-05-2026 04:30 | 5,6 | 88 | 0 | 0,4 | 214 | 0 | 1021 |
| 18 | San Fernando | 08-05-2026 04:15 | 5,7 | 88 | 0 | 0,9 | 255 | 0 | 1021,2 |
| 17 | San Fernando | 08-05-2026 04:00 | 5,8 | 88 | 0 | 0,4 | 167 | 0 | 1021,3 |
| 16 | San Fernando | 08-05-2026 03:45 | 5,9 | 88 | 0 | 0,9 | 209 | 0 | 1021,4 |
| 15 | San Fernando | 08-05-2026 03:30 | 6,1 | 88 | 0 | 0,9 | 175 | 0 | 1021,5 |
| 14 | San Fernando | 08-05-2026 03:15 | 6,2 | 88 | 0 | 0,9 | 221 | 0 | 1021,8 |
| 13 | San Fernando | 08-05-2026 03:00 | 6,3 | 88 | 0 | 0 | 204 | 0 | 1021,8 |
| 12 | San Fernando | 08-05-2026 02:45 | 6,4 | 88 | 0 | 0,9 | 280 | 0 | 1021,8 |
| 11 | San Fernando | 08-05-2026 02:30 | 6,4 | 88 | 0 | 0 | 229 | 0 | 1021,9 |
| 10 | San Fernando | 08-05-2026 02:15 | 6,6 | 87 | 0 | 0 | 228 | 0 | 1022,1 |
| 9 | San Fernando | 08-05-2026 02:00 | 6,6 | 87 | 0 | 0,9 | 209 | 0 | 1022,2 |
| 8 | San Fernando | 08-05-2026 01:45 | 6,7 | 86 | 0 | 0,4 | 218 | 0 | 1022,2 |
| 7 | San Fernando | 08-05-2026 01:30 | 7 | 86 | 0 | 0 | 197 | 0 | 1022,6 |
| 6 | San Fernando | 08-05-2026 01:15 | 7,3 | 85 | 0 | 0,4 | 200 | 0 | 1022,9 |
| 5 | San Fernando | 08-05-2026 01:00 | 7,5 | 85 | 0 | 0,9 | 193 | 0 | 1023 |
| 4 | San Fernando | 08-05-2026 00:45 | 7,7 | 84 | 0 | 0,4 | 192 | 0 | 1022,9 |
| 3 | San Fernando | 08-05-2026 00:30 | 8 | 83 | 0 | 1,3 | 225 | 0 | 1023,1 |
| 2 | San Fernando | 08-05-2026 00:15 | 8,4 | 82 | 0 | 0 | 229 | 0 | 1023,3 |
| 1 | San Fernando | 08-05-2026 00:00 | 8,6 | 82 | 0 | 0 | 191 | 0 | 1023,2 |